SL-16 R/B, 23705

Orbit data source: Space-Track

SL-16 R/B, 23705 is space debris in LEO originally from a launch on Tue, 31 Oct 1995 UTC launched from the Tyuratam Missile And Space Complex (TTMTR). Debris objects in space refer to the collection of defunct objects orbiting the Earth. Examples of debris include non-operational satellites, rocket bodies, and fragments generated from explosions, collisions, or faulty payload assembly.

Loading next visibility...
Identifier
23705, 1995-058B
Orbit
LEO
Country
Flag of CISCIS
Related business
Manufacturer
Yuzhnoe
Mission
Spacecraft
Bus & Motor
11S772, Unknown motor
Mass
9,000 kg wet, 9,000 kg dry
Launch date (UTC)
1995-10-31 (30 years ago)
Launch vehicle
Unknown
Launch site
Tyuratam Missile And Space Complex (TTMTR)
Object type
Payload
Rocket body
Debris
Shape & HBR
Cyl, 5.2 m
Radar Cross Section
37.829 m², Large (>1 m²)

Expand to show TLE details & history
Last TLE update: 9 hours ago

TLE from 9 hours ago
0 SL-16 R/B
1 23705U 95058B   25260.91894022 -.00000194  00000-0 -74941-4 0  9999
2 23705  71.0215 182.9771 0011888  12.5989 347.5429 14.15460273543403
Epoch: 2025-09-17T22:03Z
TLE epoch observation values (Epoch: 2025-09-17T22:03:16.435Z)
Latitude
0.00003°
Longitude
-144.92936°
Altitude
834.768 km
Speed
7.44 km/s
True Right ascension
12h 11m 54s
True Declination
0° 00' 00"
Sunlit
Object was in daylight at epoch
Visualization orbit readout
Latitude
Unknown
Longitude
Unknown
Altitude
Unknown
Speed
Unknown
Apparent Right ascension
Unknown
Apparent Declination
Unknown
Sunlit
N/A
Visualization observer readout
Local Sidereal Time
00:21:22
Azimuth
Unknown
Elevation
Unknown
Doppler factor
Unknown
Orbital elements
Apogee altitude
847.248 km
Perigee altitude
830.09 km
Semi-major axis
7,216.806 km
Eccentricity
0.00119
Inclination
71.0215°
RAAN
182.9771°
Arg. of periapsis
12.5989°
True anomaly
347.51347°
Mean anomaly
347.5429°
Eccentric anomaly
347.52819°
Mean motion
3.54018 °/min
Orbital period
101.69 mins
BSTAR
-0.000074941
Loading maneuver chart data...
Computing Atmospheric mass density...
Loading historical data...
Loading historical data...
Loading historical data...
Loading historical data...
Loading historical data...
Loading historical data...
Loading historical data...

Documentation

Showing up to 5 results
|